Temp
-12 -12 -12 -12 -11 -11 -11 -11 -11 -11 -11 -11 -11 -10 -10 -10 -10 -10 -10 -10 -11 -12 -12 -12 -11 -11 -10 -10 -9 -9 -9 -8 -8 -9 -9 -10 -9 -9 -9 -9 -8 -8 -8 -8 -8
-12 -12 -12 -12 -12 -12 -11 -11 -11 -11 -11 -11 -11 -11 -11 -11 -11 -11 -11 -10 -11 -12 -11 -12 -12 -11 -11 -11 -10 -9 -9 -8 -9 -9 -10 -11 -10 -9 -9 -9 -8 -8 -8 -9 -9
-12 -12 -12 -12 -12 -12 -12 -12 -12 -11 -11 -11 -11 -11 -11 -11 -11 -11 -11 -10 -10 -10 -11 -11 -12 -12 -12 -11 -11 -10 -9 -9 -9 -10 -10 -10 -10 -10 -10 -9 -10 -9 -9 -8 -9
-13 -13 -12 -12 -12 -12 -12 -12 -12 -12 -11 -11 -11 -11 -11 -11 -11 -11 -11 -11 -11 -11 -10 -11 -12 -12 -11 -11 -12 -11 -10 -10 -10 -10 -11 -11 -10 -10 -9 -9 -10 -9 -10 -9 -9
-13 -13 -13 -13 -13 -13 -13 -12 -12 -12 -12 -12 -12 -11 -11 -11 -11 -11 -11 -11 -11 -11 -11 -11 -11 -12 -12 -11 -12 -11 -10 -11 -11 -11 -11 -11 -10 -10 -9 -9 -10 -10 -9 -9 -9
-13 -13 -13 -13 -13 -13 -13 -12 -12 -12 -12 -12 -12 -12 -12 -12 -11 -11 -11 -11 -11 -11 -11 -11 -11 -11 -11 -12 -12 -11 -11 -12 -11 -12 -11 -11 -10 -11 -8 -9 -9 -9 -9 -9 -9
-13 -13 -13 -13 -13 -13 -13 -13 -13 -13 -12 -12 -12 -12 -12 -11 -12 -12 -12 -12 -11 -11 -11 -11 -11 -11 -11 -11 -12 -12 -12 -12 -11 -11 -12 -11 -11 -8 -9 -10 -9 -9 -9 -9 -10
-13 -13 -13 -13 -13 -13 -13 -13 -12 -12 -12 -12 -12 -12 -12 -12 -12 -12 -12 -12 -12 -11 -12 -12 -12 -11 -11 -11 -11 -11 -12 -12 -11 -12 -12 -12 -9 -9 -10 -10 -10 -10 -10 -11 -10
-13 -14 -14 -14 -13 -13 -13 -13 -13 -12 -12 -12 -12 -12 -12 -12 -12 -12 -12 -12 -12 -12 -12 -12 -12 -12 -12 -11 -11 -11 -11 -11 -11 -11 -12 -12 -9 -10 -10 -11 -10 -11 -10 -10 -9
-14 -14 -14 -14 -14 -13 -13 -13 -13 -13 -12 -12 -12 -12 -12 -12 -11 -11 -11 -11 -11 -11 -11 -12 -12 -12 -12 -12 -11 -11 -11 -11 -11 -11 -12 -12 -9 -11 -11 -11 -10 -10 -10 -9 -9
-15 -14 -14 -14 -14 -14 -13 -13 -14 -14 -13 -13 -13 -12 -12 -12 -12 -12 -12 -11 -11 -11 -11 -12 -12 -11 -11 -12 -12 -12 -11 -11 -11 -11 -12 -12 -11 -11 -10 -10 -9 -9 -9 -9 -8
-15 -15 -14 -14 -14 -14 -13 -13 -13 -13 -13 -13 -14 -14 -13 -13 -15 -17 -15 -15 -15 -13 -13 -13 -12 -11 -12 -12 -12 -12 -12 -12 -12 -12 -11 -11 -11 -10 -10 -9 -9 -9 -9 -9 -8
-15 -15 -15 -14 -14 -14 -14 -14 -14 -14 -14 -15 -15 -15 -17 -18 -21 -22 -22 -22 -21 -21 -19 -17 -15 -14 -13 -13 -12 -12 -12 -12 -12 -12 -12 -11 -10 -10 -9 -9 -9 -9 -9 -8 -8
-15 -15 -15 -14 -14 -14 -14 -15 -15 -15 -15 -16 -18 -18 -20 -22 -23 -23 -23 -22 -22 -22 -23 -22 -20 -17 -17 -14 -14 -13 -12 -12 -12 -12 -11 -12 -10 -9 -9 -9 -9 -9 -9 -9 -9
-15 -15 -15 -15 -15 -15 -15 -16 -16 -17 -17 -18 -19 -20 -22 -24 -24 -24 -23 -23 -23 -23 -24 -23 -22 -21 -20 -17 -16 -13 -13 -12 -12 -12 -12 -11 -11 -8 -10 -9 -8 -9 -9 -9 -10
-14 -15 -15 -15 -15 -15 -16 -17 -17 -18 -19 -19 -21 -22 -23 -24 -24 -24 -23 -23 -23 -22 -23 -23 -23 -23 -22 -20 -19 -16 -15 -14 -13 -13 -12 -11 -11 -9 -9 -9 -9 -9 -10 -10 -10
-14 -14 -15 -15 -15 -16 -17 -17 -18 -19 -19 -20 -22 -23 -23 -23 -23 -24 -23 -24 -23 -23 -23 -23 -23 -23 -23 -22 -20 -18 -16 -15 -15 -14 -11 -11 -11 -9 -9 -9 -10 -10 -10 -10 -10
-15 -15 -15 -16 -16 -16 -17 -18 -18 -19 -20 -21 -22 -23 -24 -24 -24 -25 -25 -24 -23 -23 -23 -22 -23 -24 -23 -23 -20 -19 -17 -15 -15 -13 -11 -11 -10 -9 -9 -9 -10 -10 -10 -10 -10
-15 -15 -16 -16 -16 -17 -18 -18 -19 -20 -20 -21 -23 -23 -24 -25 -25 -25 -25 -24 -24 -23 -23 -22 -23 -23 -23 -22 -22 -20 -19 -17 -16 -13 -12 -11 -10 -9 -9 -10 -10 -12 -11 -10 -9
-15 -16 -16 -17 -17 -17 -18 -19 -19 -20 -20 -22 -23 -24 -24 -24 -25 -25 -25 -24 -24 -24 -23 -23 -23 -22 -22 -22 -22 -21 -20 -19 -16 -14 -12 -11 -10 -9 -9 -11 -10 -11 -10 -9 -9
-16 -16 -17 -17 -18 -18 -19 -19 -20 -20 -21 -22 -23 -24 -24 -24 -25 -25 -25 -25 -25 -24 -24 -23 -23 -23 -23 -23 -22 -22 -20 -20 -17 -14 -11 -11 -10 -10 -10 -11 -11 -11 -10 -10 -10
-16 -16 -16 -17 -18 -18 -19 -19 -20 -21 -21 -22 -23 -24 -25 -25 -25 -25 -25 -25 -25 -24 -24 -24 -23 -23 -23 -23 -23 -23 -22 -20 -17 -14 -12 -11 -11 -10 -10 -10 -12 -11 -10 -11 -10
-16 -17 -16 -17 -18 -18 -19 -20 -20 -21 -22 -22 -24 -24 -25 -24 -24 -24 -24 -24 -24 -24 -24 -24 -23 -23 -23 -23 -23 -22 -22 -21 -17 -15 -12 -11 -11 -12 -10 -10 -11 -12 -11 -11 -10
-17 -17 -17 -17 -18 -18 -19 -20 -21 -21 -22 -22 -24 -24 -24 -24 -24 -24 -24 -24 -24 -24 -24 -24 -23 -23 -23 -23 -23 -22 -21 -21 -18 -14 -12 -11 -10 -13 -12 -11 -11 -11 -12 -11 -11
-17 -17 -17 -17 -19 -19 -19 -20 -21 -21 -22 -23 -24 -24 -23 -23 -23 -24 -24 -24 -24 -24 -24 -24 -23 -23 -23 -23 -23 -23 -22 -20 -18 -14 -12 -11 -11 -13 -12 -12 -12 -12 -12 -12 -11
-17 -18 -18 -17 -18 -19 -19 -20 -21 -21 -22 -23 -23 -24 -23 -23 -23 -23 -24 -24 -23 -23 -24 -24 -23 -23 -23 -23 -23 -22 -22 -20 -18 -15 -12 -11 -11 -13 -13 -13 -13 -12 -12 -12 -10
-18 -18 -18 -18 -18 -19 -19 -20 -21 -21 -22 -23 -23 -23 -23 -23 -23 -23 -22 -23 -23 -23 -23 -23 -23 -23 -23 -23 -22 -21 -22 -21 -19 -16 -13 -11 -12 -13 -14 -13 -13 -12 -12 -12 -10
Height
5769 5769 5769 5768 5769 5769 5769 5769 5769 5769 5770 5771 5772 5774 5775 5776 5778 5779 5783 5783 5787 5792 5794 5798 5800 5802 5803 5808 5810 5814 5814 5822 5830 5834 5838 5840 5841 5840 5843 5845 5848 5851 5851 5852 5853
5766 5765 5764 5764 5764 5764 5764 5764 5764 5763 5762 5762 5763 5765 5765 5767 5768 5768 5771 5771 5774 5778 5786 5788 5792 5792 5794 5798 5800 5803 5805 5815 5825 5826 5828 5831 5836 5836 5836 5838 5841 5845 5848 5847 5846
5762 5761 5760 5760 5759 5758 5758 5758 5758 5757 5756 5756 5757 5757 5758 5759 5760 5758 5760 5762 5764 5768 5772 5775 5780 5780 5783 5787 5790 5793 5797 5811 5816 5815 5818 5818 5822 5827 5827 5831 5836 5840 5840 5840 5839
5757 5757 5756 5755 5754 5754 5753 5752 5750 5749 5749 5749 5749 5749 5749 5749 5748 5747 5752 5753 5754 5757 5760 5762 5765 5766 5772 5775 5782 5784 5791 5799 5808 5805 5807 5812 5815 5817 5822 5827 5829 5831 5834 5833 5834
5752 5751 5750 5749 5748 5747 5746 5745 5744 5743 5743 5742 5742 5741 5741 5738 5738 5738 5742 5744 5745 5745 5747 5748 5751 5754 5758 5766 5768 5772 5782 5785 5794 5793 5796 5798 5803 5807 5809 5817 5822 5824 5827 5829 5828
5747 5746 5745 5743 5742 5741 5739 5738 5737 5735 5734 5733 5732 5732 5730 5726 5727 5728 5728 5730 5731 5735 5736 5737 5740 5742 5744 5748 5753 5764 5768 5771 5777 5781 5782 5784 5792 5792 5802 5810 5813 5817 5820 5820 5821
5743 5741 5739 5737 5735 5733 5731 5729 5728 5727 5725 5724 5723 5722 5719 5717 5716 5716 5715 5713 5716 5722 5726 5726 5725 5727 5732 5736 5740 5747 5751 5754 5759 5769 5772 5774 5774 5780 5796 5797 5802 5807 5810 5810 5813
5738 5736 5734 5731 5728 5726 5723 5719 5717 5715 5713 5712 5710 5709 5706 5705 5704 5704 5703 5700 5701 5704 5710 5709 5709 5714 5717 5722 5727 5731 5735 5737 5750 5755 5761 5762 5766 5784 5786 5787 5791 5796 5797 5797 5802
5733 5730 5727 5724 5721 5719 5716 5713 5709 5706 5703 5700 5697 5694 5692 5689 5687 5685 5687 5688 5688 5688 5690 5688 5694 5700 5702 5707 5711 5716 5723 5730 5737 5745 5743 5745 5758 5768 5773 5778 5781 5784 5785 5786 5790
5727 5723 5721 5718 5714 5711 5707 5703 5698 5694 5691 5687 5682 5680 5675 5670 5666 5660 5664 5669 5668 5670 5671 5670 5674 5682 5688 5691 5701 5710 5714 5716 5717 5725 5726 5731 5744 5752 5761 5764 5766 5768 5774 5778 5780
5720 5717 5714 5710 5705 5702 5698 5695 5691 5683 5677 5673 5667 5660 5655 5652 5643 5636 5640 5638 5642 5645 5645 5647 5649 5668 5683 5683 5687 5688 5692 5698 5704 5709 5715 5724 5729 5739 5745 5748 5754 5760 5766 5768 5771
5714 5710 5706 5702 5698 5693 5688 5683 5678 5673 5666 5658 5651 5643 5635 5628 5619 5610 5612 5609 5609 5613 5617 5621 5632 5650 5657 5657 5665 5671 5676 5683 5691 5697 5703 5714 5715 5729 5731 5739 5746 5751 5755 5759 5762
5709 5706 5699 5695 5690 5684 5679 5673 5667 5661 5656 5647 5639 5629 5618 5609 5600 5597 5596 5595 5592 5588 5590 5594 5615 5624 5628 5634 5646 5654 5662 5670 5677 5685 5693 5702 5704 5713 5724 5730 5737 5741 5746 5749 5754
5704 5699 5694 5689 5686 5678 5672 5666 5659 5652 5646 5638 5628 5615 5609 5599 5593 5586 5588 5587 5583 5579 5576 5577 5591 5600 5603 5615 5626 5633 5645 5656 5665 5673 5684 5690 5687 5703 5718 5723 5728 5732 5738 5742 5742
5699 5694 5690 5683 5679 5672 5666 5658 5651 5644 5636 5629 5618 5606 5597 5589 5584 5585 5580 5580 5577 5574 5569 5574 5582 5587 5586 5598 5603 5620 5632 5645 5651 5657 5670 5682 5676 5704 5712 5716 5722 5727 5729 5729 5731
5696 5691 5684 5678 5672 5666 5659 5651 5645 5638 5628 5621 5609 5598 5592 5585 5581 5578 5574 5574 5572 5567 5566 5570 5572 5573 5580 5586 5594 5611 5618 5629 5637 5647 5654 5674 5673 5694 5705 5711 5714 5716 5719 5721 5724
5692 5686 5679 5672 5665 5658 5652 5645 5639 5629 5621 5613 5603 5594 5587 5582 5578 5572 5570 5569 5568 5563 5562 5562 5565 5569 5573 5577 5585 5595 5606 5618 5623 5630 5655 5664 5668 5692 5695 5700 5704 5709 5710 5714 5717
5688 5681 5674 5667 5659 5652 5645 5639 5631 5624 5615 5605 5596 5591 5582 5574 5574 5568 5564 5565 5563 5563 5562 5560 5560 5560 5567 5573 5583 5587 5597 5609 5613 5628 5651 5658 5665 5680 5688 5695 5697 5700 5703 5707 5711
5685 5678 5670 5662 5654 5645 5639 5632 5624 5618 5609 5598 5592 5587 5581 5574 5567 5566 5563 5562 5561 5561 5561 5559 5559 5560 5564 5571 5576 5580 5584 5603 5607 5622 5639 5645 5665 5672 5681 5688 5693 5696 5695 5701 5706
5680 5673 5666 5658 5649 5640 5633 5627 5618 5610 5603 5593 5584 5580 5575 5572 5567 5562 5561 5560 5559 5559 5559 5559 5561 5561 5563 5568 5571 5575 5585 5588 5597 5615 5629 5646 5656 5660 5672 5680 5684 5690 5694 5698 5703
5675 5667 5661 5654 5645 5636 5627 5621 5614 5604 5597 5588 5580 5574 5570 5566 5563 5560 5559 5558 5557 5556 5557 5557 5559 5563 5563 5566 5567 5569 5575 5580 5594 5608 5622 5638 5646 5652 5662 5674 5679 5685 5690 5695 5698
5669 5663 5656 5649 5642 5631 5623 5615 5609 5601 5592 5582 5575 5570 5566 5562 5561 5557 5556 5554 5553 5554 5555 5556 5557 5558 5560 5559 5562 5565 5569 5575 5584 5601 5613 5625 5635 5641 5654 5663 5674 5680 5687 5690 5694
5667 5657 5651 5643 5635 5628 5619 5611 5604 5596 5588 5579 5571 5568 5563 5560 5558 5555 5554 5553 5552 5551 5552 5552 5552 5553 5554 5557 5557 5559 5566 5570 5577 5587 5602 5613 5628 5635 5646 5655 5666 5675 5683 5687 5691
5663 5654 5646 5639 5630 5622 5615 5608 5601 5593 5584 5575 5569 5565 5562 5559 5556 5554 5552 5551 5549 5548 5547 5546 5548 5548 5550 5550 5552 5555 5559 5564 5568 5581 5595 5605 5617 5635 5640 5648 5658 5669 5677 5683 5688
5658 5650 5640 5634 5627 5618 5611 5603 5597 5590 5584 5573 5568 5563 5560 5558 5556 5550 5545 5543 5543 5542 5542 5542 5543 5544 5543 5545 5546 5548 5552 5556 5561 5574 5584 5597 5606 5628 5636 5644 5653 5662 5671 5678 5684
5654 5646 5637 5631 5624 5615 5608 5600 5594 5588 5579 5573 5567 5563 5559 5557 5551 5545 5538 5535 5534 5535 5534 5536 5539 5539 5539 5540 5541 5544 5547 5550 5556 5566 5579 5588 5601 5623 5631 5640 5649 5657 5666 5674 5681
5651 5643 5634 5627 5620 5613 5606 5598 5591 5586 5578 5569 5565 5562 5559 5555 5550 5544 5540 5534 5530 5528 5528 5530 5533 5535 5536 5536 5535 5539 5541 5541 5550 5559 5571 5578 5601 5616 5625 5636 5645 5654 5663 5671 5676
Wind_Speed
17 18 19 20 21 24 27 30 32 34 36 38 38 39 40 40 39 39 46 52 58 58 56 50 51 48 46 48 50 51 54 49 43 40 38 44 47 46 46 48 47 44 39 40 41
18 19 20 21 22 23 25 27 29 32 33 34 35 37 39 43 44 44 44 51 56 60 61 60 51 53 55 50 53 55 58 51 44 41 39 43 47 45 48 50 48 43 38 34 33
19 20 21 22 23 24 26 28 30 32 34 36 37 37 38 39 39 43 47 49 52 56 58 68 63 58 55 56 58 58 61 52 49 47 45 49 49 50 54 54 47 42 40 35 36
19 20 21 22 24 25 27 28 30 32 34 36 38 39 40 41 44 45 44 45 51 54 55 59 70 69 66 59 56 59 62 56 53 52 50 47 49 53 53 50 47 43 43 45 43
23 24 24 24 25 26 27 29 30 31 33 35 36 38 40 43 45 48 47 47 48 50 55 57 60 66 75 72 63 64 60 60 59 56 55 52 56 56 59 53 50 48 45 46 44
18 19 20 20 21 23 25 28 30 32 33 35 36 36 40 45 47 47 49 50 52 52 53 55 59 61 66 71 75 68 65 67 64 61 59 59 55 55 58 50 48 47 47 50 53
18 19 22 24 25 27 29 30 32 34 36 37 39 40 42 47 48 49 51 54 54 54 55 57 59 62 64 68 67 73 78 72 68 66 67 64 67 64 56 54 54 51 52 53 42
20 22 24 26 27 29 32 35 38 40 42 44 45 46 48 49 51 51 55 58 58 58 56 61 63 63 63 65 67 68 76 83 76 70 67 69 74 65 60 58 54 49 49 52 44
24 25 26 27 30 32 35 38 41 42 44 45 47 49 51 53 56 59 60 61 63 64 62 66 64 64 66 66 67 69 70 70 75 77 76 75 66 60 60 61 57 55 55 51 43
27 28 29 31 34 36 36 37 41 43 44 46 50 53 56 60 63 66 66 66 68 66 70 70 71 69 68 68 66 65 65 70 71 71 83 84 68 70 62 60 60 60 51 46 46
27 29 30 31 33 34 36 37 38 44 47 48 51 56 59 62 69 76 75 78 76 75 76 74 76 70 64 67 65 67 68 66 66 66 64 69 72 66 64 62 55 51 47 45 43
27 29 30 31 33 35 37 39 40 42 46 50 54 60 68 75 74 68 70 70 73 77 75 72 75 71 71 74 71 69 68 67 64 63 63 61 65 61 62 58 50 44 44 43 42
30 29 32 31 33 36 38 40 42 44 47 50 57 67 68 62 54 47 44 39 39 43 52 64 66 69 77 77 75 73 70 67 66 63 61 57 61 58 55 54 49 46 43 41 40
29 29 30 32 34 37 39 40 42 46 47 54 60 62 53 50 37 37 29 26 28 29 33 46 55 64 73 79 76 76 73 69 66 63 59 56 63 54 47 45 42 40 38 35 38
28 30 30 33 36 37 38 40 42 46 51 52 58 52 46 36 28 27 28 25 27 26 25 29 39 52 66 74 78 75 73 69 67 65 60 56 62 48 40 41 38 33 33 38 35
30 31 34 37 38 38 38 39 41 44 47 50 46 42 37 26 28 27 28 26 29 26 22 27 28 38 51 61 66 68 70 67 67 64 63 54 56 42 33 34 34 34 32 32 31
35 35 37 38 39 39 39 39 41 42 47 49 37 34 34 23 27 30 24 22 14 16 14 20 22 36 35 47 58 62 67 61 63 66 55 52 52 25 27 31 31 31 33 32 31
35 36 37 39 40 40 39 38 39 40 43 43 32 30 30 31 24 24 19 15 13 13 12 19 18 25 34 33 42 54 59 65 68 60 51 49 45 30 30 18 11 27 31 28 25
36 37 37 38 39 40 38 37 38 39 42 43 28 27 22 21 27 19 12 10 9 9 11 3 13 13 25 27 30 44 50 51 54 59 54 53 40 36 34 32 28 19 22 25 23
37 37 36 37 39 39 38 36 37 40 41 40 33 31 26 21 18 18 13 11 12 11 13 9 9 12 16 19 29 34 41 46 52 52 55 49 44 44 36 26 26 23 17 20 19
41 40 39 37 37 38 36 34 33 38 40 40 31 30 29 25 19 15 13 12 10 11 8 10 9 10 12 15 22 27 40 45 48 51 50 49 51 49 43 38 24 21 18 17 21
44 41 40 39 38 39 36 36 34 35 39 40 32 28 25 23 16 14 13 12 10 9 11 10 8 8 15 22 24 29 37 43 50 52 52 52 53 48 46 41 32 28 18 20 19
42 42 42 40 40 39 36 34 33 36 37 38 29 27 22 19 17 13 11 10 8 11 10 13 14 13 14 18 26 28 32 43 51 55 56 57 55 43 47 42 35 37 28 28 21
42 41 42 40 41 42 39 34 32 33 36 37 24 22 17 13 21 18 18 16 19 17 17 18 16 18 17 19 23 29 33 40 52 57 58 59 58 26 24 30 34 34 31 27 22
42 40 41 42 39 41 40 37 33 34 32 31 19 18 15 13 21 28 27 21 20 23 23 24 16 17 18 21 22 27 34 40 52 59 61 60 60 31 31 37 41 40 33 29 27
40 38 39 40 38 39 40 36 32 32 35 24 16 16 19 22 29 21 19 13 15 22 23 25 22 19 16 19 20 24 28 40 50 59 60 62 57 46 40 45 45 41 36 32 29
36 34 36 39 37 37 38 36 32 32 30 24 17 13 16 22 19 20 25 19 12 13 19 19 21 22 14 20 23 17 21 37 48 57 61 63 52 52 46 47 47 41 34 30 29
Wind_Direction
269 270 270 270 270 270 270 271 269 266 262 259 255 253 254 256 257 252 246 242 241 244 244 243 244 236 238 237 233 232 234 230 226 228 217 223 232 239 245 246 249 258 260 270 271
273 272 270 269 267 264 263 264 267 270 271 271 269 267 263 257 255 252 250 248 247 243 239 243 245 247 235 236 238 236 238 236 230 227 222 219 226 238 242 246 252 257 271 267 275
281 280 279 278 277 276 273 270 267 265 264 265 266 265 266 263 262 259 252 247 247 247 246 237 240 242 244 238 233 234 237 240 234 230 226 227 222 224 236 243 250 257 259 269 282
283 280 277 275 275 273 271 269 268 268 268 268 267 267 266 265 264 259 257 256 256 249 246 244 239 240 241 241 249 246 239 240 237 235 233 233 243 242 241 249 254 259 257 267 284
285 284 283 282 281 280 279 277 275 273 272 270 269 269 268 264 261 263 259 256 253 253 253 250 248 243 240 240 240 246 244 242 239 235 232 233 239 242 246 247 247 256 264 266 277
290 288 284 281 280 282 283 282 281 279 278 276 274 273 272 271 271 267 264 259 255 251 252 253 253 250 246 244 241 241 243 246 244 237 238 238 237 245 246 249 254 259 264 267 271
289 286 284 283 283 284 285 284 284 284 283 280 277 275 273 271 269 269 267 265 261 255 253 251 249 250 248 245 244 242 240 242 242 243 247 247 252 248 259 262 262 263 265 267 269
290 289 290 291 292 294 295 295 295 292 289 285 282 279 277 271 268 266 265 264 263 261 255 253 250 248 249 250 247 247 243 239 241 245 247 249 249 251 255 260 266 262 264 261 264
299 297 296 296 296 295 294 293 292 291 290 288 284 279 274 272 269 262 256 257 260 260 257 253 250 248 247 247 247 247 247 249 246 244 247 247 252 250 255 260 259 258 261 264 261
303 302 301 300 298 298 299 299 299 296 294 293 291 288 283 279 277 273 268 259 256 255 254 254 250 246 245 246 248 252 251 248 248 247 246 249 253 256 257 257 257 254 255 259 258
309 306 305 303 302 302 303 303 304 302 298 297 295 292 289 286 284 281 275 268 263 258 257 253 247 247 246 247 244 245 246 246 246 248 248 250 251 251 256 255 258 254 260 258 260
308 308 308 308 310 310 311 309 306 304 305 305 306 303 302 301 298 294 286 280 271 261 255 249 248 245 240 239 239 240 241 242 244 245 249 247 251 252 254 255 256 254 253 256 258
314 316 315 317 318 317 316 314 310 309 313 313 314 317 314 308 305 293 287 287 284 273 256 243 237 234 236 234 234 236 238 239 240 243 245 249 249 250 251 253 256 256 256 257 259
324 322 322 320 321 319 317 314 314 315 316 320 325 319 314 307 298 290 285 294 294 290 262 247 229 226 230 231 230 230 232 236 238 239 242 246 249 245 249 253 253 253 257 256 254
333 328 325 322 325 320 318 317 317 320 324 323 325 320 319 310 303 295 288 294 301 306 252 252 236 230 228 226 225 226 229 231 235 237 237 239 248 239 246 252 254 257 251 250 252
340 334 329 327 325 324 321 319 321 325 328 328 324 318 321 305 295 306 289 289 298 284 250 248 246 238 236 227 228 226 225 227 231 233 234 235 246 247 245 243 243 245 245 250 251
338 336 334 332 328 327 324 321 324 329 329 330 327 315 320 300 298 307 295 278 287 289 268 254 267 240 234 231 223 224 224 224 229 230 230 233 239 244 239 236 235 237 243 245 249
339 337 337 335 332 329 327 323 326 328 329 332 326 321 324 317 311 312 290 275 265 304 269 266 263 230 232 235 231 221 222 226 228 228 225 229 232 229 229 225 235 233 241 239 242
341 339 337 337 334 330 328 324 325 328 332 335 323 323 327 319 313 312 294 272 279 266 290 62 222 217 220 228 226 220 217 220 226 227 221 224 223 224 229 232 228 223 219 229 229
341 340 338 340 337 332 328 325 327 329 335 336 324 325 331 327 309 296 301 270 272 290 282 278 211 202 200 213 224 216 217 211 217 220 221 219 219 221 221 221 207 219 209 215 216
341 341 340 342 339 335 329 326 329 331 337 335 326 324 322 320 327 293 294 276 280 286 282 270 244 255 255 221 207 216 215 215 214 213 215 215 219 222 224 212 215 212 211 212 217
342 338 340 341 341 339 332 330 333 335 336 335 329 324 320 316 328 312 287 275 272 276 271 261 247 219 237 237 235 231 219 215 209 209 208 211 216 223 219 218 198 202 196 210 221
341 339 340 341 340 341 338 331 336 337 338 335 327 325 324 327 334 325 295 281 289 283 279 271 268 254 256 238 233 234 231 220 211 206 203 209 206 213 218 217 202 207 206 209 221
341 337 338 341 341 340 342 335 338 340 339 338 331 328 335 337 325 336 317 288 269 272 265 258 262 266 260 263 247 239 238 227 215 205 202 206 209 189 196 205 198 194 192 203 209
340 338 337 341 342 338 342 337 340 341 344 339 334 328 337 334 331 322 313 289 278 277 265 263 255 249 258 254 253 241 232 231 219 204 203 205 209 174 190 177 176 178 189 200 204
338 335 335 341 342 339 341 337 338 345 345 344 331 328 330 333 334 352 332 303 271 262 263 256 252 248 249 247 246 245 246 231 220 206 201 205 206 186 185 175 176 182 190 195 201
340 333 332 337 341 339 341 338 339 350 346 348 350 345 327 333 346 357 358 355 332 279 254 249 234 235 255 257 250 258 239 234 221 209 203 206 198 183 184 178 180 182 190 190 194